Tracking 19709 objects as of 18-Jun-2019
HD Live streaming from Space Station
objects crossing your sky now

SL-8 DEB

Track SL-8 DEB now!
10-day predictions


NORAD ID: 27743
Int'l Code: 1991-009CY
Perigee: 1,491.2 km
Apogee: 1,708.3 km
Inclination: 74.1 °
Period: 118.0 minutes
Semi major axis: 7970 km
RCS: 0.0193 m2 (small)
Launch date: February 12, 1991
Source: Commonwealth of Independent States (former USSR) (CIS)
Launch site: PLESETSK MISSILE AND SPACE COMPLEX (PKMTR)

Note: This is SATELLITE DEBRIS
aabbcc
Your satellite tracking list
Your tracking list is empty




NASA's NSSDC Master Catalog

Two Line Element Set (TLE):
1 27743U 91009CY  19168.47789591 +.00000021 +00000-0 +33488-3 0  9999
2 27743 074.0618 187.1745 0136193 309.5853 209.1260 12.19992380942807
Source of the keplerian elements: AFSPC